FW8475 Weather Reports


time (UTC)temp
F
wind
direction
speed
knots
gust
knots
rain 1hr
in
rain 24hr
in
rain mn
in
humidity
%
barometer
mb
20260504215016 61 0.0 0.0 0.00 0.00 0.00 73 1017.0
20260504214016 61 0.0 0.0 0.00 0.00 0.00 73 1017.1
20260504213016 61 0.0 0.0 0.00 0.00 0.00 72 1016.9
20260504212016 62 0.0 0.0 0.00 0.00 0.00 71 1017.1
20260504211016 63 0.0 0.9 0.00 0.00 0.00 70 1017.2
20260504210016 63 0.0 0.0 0.00 0.00 0.00 69 1017.2
20260504205056 64 0.0 0.0 0.00 0.00 0.00 69 1017.2
20260504204016 64 0.0 0.0 0.00 0.00 0.00 68 1017.3
20260504203016 64 0.0 0.0 0.00 0.00 0.00 67 1017.3
20260504202016 65 0.0 0.0 0.00 0.00 0.00 66 1017.2
20260504201016 65 0.0 0.0 0.00 0.00 0.00 66 1017.2
20260504200016 65 0.0 0.0 0.00 0.00 0.00 65 1017.1
20260504195021 65 0.0 0.0 0.00 0.00 0.00 65 1017.1
20260504194016 66 0.0 0.0 0.00 0.00 0.00 64 1017.1
20260504193025 66 0.0 0.0 0.00 0.00 0.00 62 1017.0
20260504192056 66 0.0 0.0 0.00 0.00 0.00 61 1017.0
20260504191015 67 0.0 0.0 0.00 0.00 0.00 60 1017.0
20260504190016 67 0.0 0.0 0.00 0.00 0.00 60 1016.7
20260504185016 67 0.0 0.0 0.00 0.00 0.00 61 1016.6
20260504184016 68 0.0 0.0 0.00 0.00 0.00 61 1016.6
20260504183056 68 0.0 0.0 0.00 0.00 0.00 60 1016.4
20260504182016 69 0.0 0.0 0.00 0.00 0.00 59 1016.5
20260504181016 70 0.0 0.0 0.00 0.00 0.00 57 1016.3
20260504180016 71 0.0 1.7 0.00 0.00 0.00 56 1016.2
20260504175016 73 0.0 0.0 0.00 0.00 0.00 54 1016.2
20260504174015 74 225 0.9 1.7 0.00 0.00 0.00 52 1016.0
20260504173056 74 0.0 1.7 0.00 0.00 0.00 52 1016.0
20260504172015 75 203 1.7 3.5 0.00 0.00 0.00 52 1016.0
20260504171016 76 248 0.9 2.6 0.00 0.00 0.00 53 1016.0
20260504151015 77 0.0 0.9 0.00 0.00 0.00 51 1016.2
20260504141016 79 0.0 0.9 0.00 0.00 0.00 49 1016.4
20260504081015 70 0.0 0.9 0.00 0.00 0.00 53 1018.5
20260504050017 55 0.0 0.9 0.00 0.00 0.00 78 1017.6
20260504045017 55 0.0 0.9 0.00 0.00 0.00 79 1017.6
20260504044017 55 0.0 0.0 0.00 0.00 0.00 79 1017.6
20260504043017 55 0.0 0.9 0.00 0.00 0.00 79 1017.4
20260504042017 55 0.0 0.0 0.00 0.00 0.00 79 1017.4
20260504041017 55 0.0 0.0 0.00 0.00 0.00 79 1017.4
20260504040057 55 0.0 0.0 0.00 0.00 0.00 79 1017.3
20260504035017 55 0.0 0.0 0.00 0.00 0.00 78 1017.4
20260504034114 55 0.0 0.0 0.00 0.00 0.00 78 1017.4
20260504033057 55 0.0 0.0 0.00 0.00 0.00 77 1017.5
20260504031017 55 0.0 0.0 0.00 0.00 0.00 76 1017.4
20260504030017 56 0.0 0.0 0.00 0.00 0.00 75 1017.4
20260504025017 56 0.0 0.0 0.00 0.00 0.00 75 1017.5
20260504024057 56 0.0 0.0 0.00 0.00 0.00 75 1017.4
20260504023017 56 0.0 0.0 0.00 0.00 0.00 75 1017.6
20260504022017 56 0.0 0.0 0.00 0.00 0.00 75 1017.5
20260504021017 56 0.0 0.0 0.00 0.00 0.00 75 1017.5
20260504020017 57 0.0 0.0 0.00 0.00 0.00 75 1017.5
20260504015017 57 0.0 0.0 0.00 0.00 0.00 74 1017.6
20260504014017 57 0.0 0.0 0.00 0.00 0.00 73 1017.6
20260504013017 57 0.0 0.0 0.00 0.00 0.00 73 1017.6
20260504012017 58 0.0 0.0 0.00 0.00 0.00 72 1017.6
20260504011057 58 0.0 0.0 0.00 0.00 0.00 72 1017.8
20260504010017 58 0.0 0.0 0.00 0.00 0.00 71 1017.8
20260504004057 58 0.0 0.0 0.00 0.00 0.00 70 1017.7
20260504003017 58 0.0 0.0 0.00 0.00 0.00 70 1017.7
20260504002057 58 0.0 0.0 0.00 0.00 0.00 70 1017.8
20260504001017 59 0.0 0.0 0.00 0.00 0.00 70 1017.9
20260504000017 59 0.0 0.0 0.00 0.00 0.00 70 1017.9
20260503235017 59 0.0 0.0 0.00 0.00 0.00 69 1017.8
20260503234017 59 0.0 0.0 0.00 0.00 0.00 69 1017.8
20260503233017 59 0.0 0.0 0.00 0.00 0.00 69 1017.8
20260503232017 59 0.0 0.0 0.00 0.00 0.00 69 1017.8
20260503231017 59 0.0 0.0 0.00 0.00 0.00 69 1017.9
20260503230017 59 0.0 0.0 0.00 0.00 0.00 69 1017.9
20260503225017 59 0.0 0.0 0.00 0.00 0.00 68 1018.0
20260503224057 59 0.0 0.0 0.00 0.00 0.00 68 1017.9
20260503223017 59 0.0 0.0 0.00 0.00 0.00 68 1018.0
20260503222057 59 0.0 0.0 0.00 0.00 0.00 68 1018.0
20260503221057 60 0.0 0.0 0.00 0.00 0.00 66 1017.9
20260503220017 60 0.0 0.0 0.00 0.00 0.00 66 1017.8